CFG6HC EDLW-LEPA

Flight info

Callsign CFG6HC
Flight time N/A
Altitude 35000
Route BAMSU2U BAMSU M170 NVO Y841 KENUM DCT GESLO DCT LIMGO DCT SUTAL DCT GTQ DCT POGOL DCT LASAT DCT MOROK DCT GILIR DCT GEVEA DCT INCUS DCT BALSI DCT RETNO DCT TUPOX DCT MTG DCT DIVKO DCT VATIR N852 VERSO DCT LUNIK
Aircraft A321/M-SDE2E3FGHIJ1RWXYZ/LB1

Departure

Time N/A
Airport Dortmund Airport (EDLW)

Arrival

Time 2026-05-04 18:48
Airport Palma de Mallorca Airport (LEPA)
Time Latitude Longitude Altitude Speed Heading
2026-05-04 17:56 42.66038 4.47815 34943 ft 394 kts 211°
2026-05-04 17:57 42.61233 4.44218 34946 ft 395 kts 211°
2026-05-04 17:57 42.56417 4.40611 34937 ft 395 kts 211°
2026-05-04 17:58 42.52407 4.37620 34918 ft 395 kts 211°
2026-05-04 17:58 42.47589 4.34031 34929 ft 395 kts 211°
2026-05-04 17:59 42.42762 4.30445 34936 ft 395 kts 211°
2026-05-04 18:00 42.35524 4.25075 34932 ft 395 kts 211°
2026-05-04 18:00 42.30695 4.21500 34926 ft 395 kts 211°
2026-05-04 18:01 42.25871 4.17932 34961 ft 395 kts 211°
2026-05-04 18:01 42.21046 4.14375 34945 ft 395 kts 211°
2026-05-04 18:02 42.13803 4.09040 34941 ft 395 kts 211°
2026-05-04 18:02 42.08977 4.05499 34930 ft 395 kts 212°
2026-05-04 18:03 42.04156 4.01963 34935 ft 394 kts 212°
2026-05-04 18:03 41.99369 3.98453 34931 ft 394 kts 211°
2026-05-04 18:04 41.94551 3.94936 34931 ft 394 kts 211°
2026-05-04 18:04 41.89306 3.92635 34919 ft 403 kts 195°
2026-05-04 18:05 41.86541 3.92005 34924 ft 403 kts 195°
2026-05-04 18:05 41.81019 3.90736 34929 ft 403 kts 195°
2026-05-04 18:06 41.72730 3.88819 34931 ft 403 kts 195°
2026-05-04 18:06 41.67198 3.87554 34920 ft 403 kts 195°
2026-05-04 18:07 41.61672 3.86287 34931 ft 403 kts 195°
2026-05-04 18:07 41.56150 3.85013 34935 ft 403 kts 195°
2026-05-04 18:08 41.50632 3.83744 34933 ft 402 kts 195°
2026-05-04 18:08 41.45149 3.82486 34917 ft 402 kts 195°
2026-05-04 18:09 41.34093 3.79970 34940 ft 403 kts 195°
2026-05-04 18:10 41.28563 3.78705 34932 ft 403 kts 195°
2026-05-04 18:10 41.23040 3.77446 34923 ft 403 kts 195°
2026-05-04 18:11 41.17521 3.76194 34928 ft 402 kts 195°
2026-05-04 18:11 41.12227 3.74110 34923 ft 395 kts 206°
2026-05-04 18:12 41.07135 3.71482 34894 ft 395 kts 205°
2026-05-04 18:12 41.01998 3.68841 34644 ft 397 kts 206°
2026-05-04 18:13 40.99419 3.67512 34407 ft 397 kts 206°
2026-05-04 18:13 40.96841 3.66185 34169 ft 397 kts 206°
2026-05-04 18:13 40.91689 3.63538 33664 ft 397 kts 205°
2026-05-04 18:14 40.89109 3.62217 33391 ft 398 kts 205°
2026-05-04 18:14 40.86522 3.60898 33119 ft 399 kts 205°
2026-05-04 18:14 40.83932 3.59577 32844 ft 400 kts 205°
2026-05-04 18:15 40.78733 3.56919 32317 ft 401 kts 205°
2026-05-04 18:15 40.73515 3.54245 31183 ft 405 kts 205°
2026-05-04 18:15 40.70883 3.52900 30422 ft 406 kts 205°
2026-05-04 18:16 40.68229 3.51544 29440 ft 412 kts 205°
2026-05-04 18:16 40.65549 3.50178 28504 ft 414 kts 205°
2026-05-04 18:16 40.62869 3.48815 27958 ft 409 kts 205°
2026-05-04 18:17 40.57632 3.46158 26826 ft 399 kts 205°
2026-05-04 18:17 40.55053 3.44858 26263 ft 394 kts 205°
2026-05-04 18:17 40.49985 3.42304 25186 ft 386 kts 205°
2026-05-04 18:18 40.47490 3.41041 24653 ft 383 kts 205°
2026-05-04 18:18 40.44990 3.39957 24075 ft 385 kts 198°
2026-05-04 18:18 40.42328 3.39437 23469 ft 389 kts 188°
2026-05-04 18:18 40.39610 3.39499 22849 ft 390 kts 183°
2026-05-04 18:19 40.34253 3.39824 21763 ft 381 kts 183°
2026-05-04 18:19 40.31617 3.39972 21252 ft 376 kts 183°
2026-05-04 18:19 40.29021 3.40115 20755 ft 372 kts 183°
2026-05-04 18:20 40.26447 3.40260 20282 ft 367 kts 182°
2026-05-04 18:20 40.23908 3.40404 19820 ft 364 kts 182°
2026-05-04 18:20 40.21379 3.40545 19370 ft 362 kts 182°
2026-05-04 18:20 40.18844 3.40682 18934 ft 374 kts 183°
2026-05-04 18:21 40.16215 3.40818 18462 ft 377 kts 182°
2026-05-04 18:21 40.13608 3.40960 17966 ft 373 kts 182°
2026-05-04 18:21 40.11025 3.41108 17438 ft 370 kts 182°
2026-05-04 18:21 40.08483 3.41260 16897 ft 357 kts 182°
2026-05-04 18:22 40.06060 3.41339 16392 ft 340 kts 189°
2026-05-04 18:22 40.03850 3.40552 15892 ft 324 kts 209°
2026-05-04 18:22 40.01899 3.39187 15406 ft 321 kts 212°
2026-05-04 18:22 39.99962 3.37742 14916 ft 319 kts 212°
2026-05-04 18:23 39.98049 3.36299 14412 ft 317 kts 212°
2026-05-04 18:23 39.96154 3.34874 13952 ft 310 kts 212°
2026-05-04 18:23 39.94304 3.33481 13344 ft 306 kts 212°
2026-05-04 18:23 39.92486 3.32114 12678 ft 296 kts 212°
2026-05-04 18:24 39.90731 3.30799 12055 ft 286 kts 212°
2026-05-04 18:24 39.89031 3.29531 11434 ft 277 kts 212°
2026-05-04 18:24 39.87379 3.28306 10822 ft 270 kts 212°
2026-05-04 18:24 39.85768 3.27117 10221 ft 262 kts 212°
2026-05-04 18:25 39.84187 3.25952 9619 ft 263 kts 212°
2026-05-04 18:25 39.82570 3.24761 8971 ft 271 kts 212°
2026-05-04 18:25 39.81018 3.23345 8323 ft 275 kts 227°
2026-05-04 18:25 39.79825 3.21420 7700 ft 272 kts 233°
2026-05-04 18:26 39.78681 3.19472 7084 ft 270 kts 233°
2026-05-04 18:26 39.77559 3.17552 6480 ft 262 kts 233°
2026-05-04 18:26 39.76490 3.15725 5862 ft 254 kts 233°
2026-05-04 18:26 39.75425 3.13907 5220 ft 245 kts 233°
2026-05-04 18:27 39.74425 3.12203 4978 ft 232 kts 233°
2026-05-04 18:27 39.73463 3.10567 4823 ft 223 kts 233°
2026-05-04 18:27 39.72537 3.08989 4697 ft 225 kts 233°
2026-05-04 18:27 39.71557 3.07317 4575 ft 237 kts 233°
2026-05-04 18:28 39.70553 3.05608 4450 ft 239 kts 233°
2026-05-04 18:28 39.69538 3.03884 4332 ft 243 kts 233°
2026-05-04 18:28 39.68511 3.02140 4209 ft 243 kts 232°
2026-05-04 18:28 39.67484 3.00395 4081 ft 243 kts 233°
2026-05-04 18:29 39.66476 2.98685 3945 ft 238 kts 232°
2026-05-04 18:29 39.65446 2.97025 3664 ft 234 kts 233°
2026-05-04 18:29 39.64558 2.95321 3379 ft 229 kts 238°
2026-05-04 18:29 39.63736 2.93583 3095 ft 213 kts 238°
2026-05-04 18:30 39.62334 2.90587 2579 ft 172 kts 238°
2026-05-04 18:30 39.61741 2.89327 2360 ft 156 kts 238°
2026-05-04 18:30 39.61193 2.88163 2160 ft 149 kts 237°
2026-05-04 18:31 39.60660 2.87029 1966 ft 147 kts 238°
2026-05-04 18:31 39.60130 2.85905 1791 ft 145 kts 236°
2026-05-04 18:31 39.59613 2.84806 1585 ft 141 kts 236°
2026-05-04 18:31 39.59105 2.83727 1380 ft 140 kts 238°
2026-05-04 18:32 39.58578 2.82612 1203 ft 146 kts 239°
2026-05-04 18:32 39.58044 2.81476 989 ft 145 kts 237°
2026-05-04 18:32 39.57528 2.80382 805 ft 139 kts 237°
2026-05-04 18:32 39.57030 2.79326 631 ft 138 kts 237°
2026-05-04 18:33 39.56531 2.78268 427 ft 140 kts 237°
2026-05-04 18:33 39.56033 2.77211 267 ft 135 kts 237°
2026-05-04 18:33 39.55546 2.76169 94 ft 135 kts 237°
2026-05-04 18:33 39.55075 2.75173 55 ft 125 kts 236°
2026-05-04 18:34 39.54576 2.74125 516 ft 143 kts 237°
2026-05-04 18:34 39.54031 2.72989 1149 ft 151 kts 234°
2026-05-04 18:34 39.53479 2.71910 1662 ft 142 kts 229°
2026-05-04 18:34 39.52536 2.71292 1770 ft 167 kts 197°
2026-05-04 18:35 39.51328 2.70976 1966 ft 186 kts 193°
2026-05-04 18:35 39.49993 2.71076 2320 ft 203 kts 164°
2026-05-04 18:35 39.48824 2.72261 2535 ft 233 kts 130°
2026-05-04 18:35 39.48223 2.74328 2741 ft 268 kts 101°
2026-05-04 18:36 39.48135 2.76821 2932 ft 283 kts 93°
2026-05-04 18:36 39.48142 2.79390 2953 ft 286 kts 92°
2026-05-04 18:36 39.48162 2.81964 2948 ft 286 kts 92°
2026-05-04 18:36 39.48182 2.84541 2952 ft 285 kts 92°
2026-05-04 18:37 39.48203 2.87100 2948 ft 284 kts 92°
2026-05-04 18:37 39.48341 2.89641 2945 ft 286 kts 77°
2026-05-04 18:37 39.49160 2.91994 2939 ft 289 kts 59°
2026-05-04 18:37 39.50216 2.94211 2942 ft 288 kts 58°
2026-05-04 18:38 39.51299 2.96397 2943 ft 289 kts 57°
2026-05-04 18:38 39.52395 2.98593 2940 ft 288 kts 57°
2026-05-04 18:38 39.53484 3.00774 2945 ft 288 kts 57°
2026-05-04 18:38 39.54577 3.02956 2943 ft 287 kts 58°
2026-05-04 18:39 39.55669 3.05118 2937 ft 287 kts 57°
2026-05-04 18:39 39.56753 3.07299 2928 ft 288 kts 57°
2026-05-04 18:39 39.57887 3.09428 2932 ft 288 kts 45°
2026-05-04 18:39 39.59516 3.10885 2939 ft 284 kts 16°
2026-05-04 18:40 39.61396 3.11445 2943 ft 281 kts
2026-05-04 18:40 39.63325 3.11734 2933 ft 278 kts
2026-05-04 18:40 39.65253 3.11924 2937 ft 278 kts 359°
2026-05-04 18:40 39.67185 3.12042 2936 ft 276 kts 353°
2026-05-04 18:41 39.68970 3.11427 2928 ft 256 kts 321°
2026-05-04 18:41 39.70024 3.09828 2930 ft 220 kts 282°
2026-05-04 18:41 39.70082 3.07954 2950 ft 206 kts 255°
2026-05-04 18:41 39.69589 3.06226 2932 ft 205 kts 242°
2026-05-04 18:42 39.68896 3.04603 2938 ft 208 kts 238°
2026-05-04 18:42 39.68152 3.02993 2939 ft 208 kts 238°
2026-05-04 18:42 39.67403 3.01392 2935 ft 207 kts 238°
2026-05-04 18:42 39.66654 2.99794 2937 ft 207 kts 238°
2026-05-04 18:43 39.65902 2.98191 2942 ft 209 kts 237°
2026-05-04 18:43 39.65148 2.96583 2941 ft 208 kts 237°
2026-05-04 18:43 39.64649 2.95521 2941 ft 208 kts 238°
2026-05-04 18:43 39.63897 2.93917 2941 ft 208 kts 238°
2026-05-04 18:44 39.63151 2.92330 2805 ft 202 kts 237°
2026-05-04 18:44 39.62668 2.91300 2676 ft 194 kts 237°
2026-05-04 18:44 39.61757 2.89364 2364 ft 188 kts 238°
2026-05-04 18:44 39.61084 2.87932 2109 ft 183 kts 237°
2026-05-04 18:45 39.60458 2.86600 1872 ft 163 kts 238°
2026-05-04 18:45 39.59898 2.85409 1704 ft 147 kts 236°
2026-05-04 18:45 39.59377 2.84303 1477 ft 140 kts 236°
2026-05-04 18:45 39.58865 2.83219 1288 ft 145 kts 238°
2026-05-04 18:46 39.58334 2.82092 1107 ft 146 kts 238°
2026-05-04 18:46 39.57780 2.80916 917 ft 161 kts 237°
2026-05-04 18:46 39.57231 2.79750 689 ft 144 kts 237°
2026-05-04 18:46 39.56708 2.78644 493 ft 139 kts 237°
2026-05-04 18:47 39.56193 2.77571 303 ft 140 kts 238°
2026-05-04 18:47 39.55706 2.76520 133 ft 136 kts 237°
2026-05-04 18:47 39.55232 2.75492 40 ft 124 kts 236°
2026-05-04 18:47 39.54888 2.74769 38 ft 60 kts 244°
2026-05-04 18:48 39.54807 2.74452 38 ft 16 kts 265°
2026-05-04 18:48 39.54803 2.74312 38 ft 15 kts 268°
2026-05-04 18:48 39.54809 2.74175 38 ft 15 kts 289°
2026-05-04 18:48 39.54880 2.74085 38 ft 14 kts 329°
2026-05-04 18:49 39.54947 2.74008 38 ft 12 kts 278°
2026-05-04 18:49 39.54889 2.73968 38 ft 11 kts 159°
2026-05-04 18:49 39.54854 2.73957 38 ft 5 kts 269°
2026-05-04 18:49 39.54853 2.73916 38 ft 5 kts 269°
2026-05-04 18:50 39.54852 2.73855 38 ft 6 kts 268°
2026-05-04 18:50 39.54851 2.73843 38 ft 0 kts 268°